Regional Weather Roundup
Issued by NWS

Home | Current Version | Previous Version | Text Only | Print | Product List | Glossary Off
Versions: 1 2 3 4 5 6 7 8 9 10 11 12 13 14 15 16 17 18 19 20 21 22 23 24 25 26 27 28 29 30 31 32 33 34 35 36 37 38 39 40 41 42 43 44 45 46 47 48 49 50

000
ASUS43 KBIS 281410
RWRND

NORTH DAKOTA REGIONAL WEATHER ROUNDUP
NATIONAL WEATHER SERVICE BISMARCK ND
900 AM CDT FRI APR 28 2017

NOTE: "FAIR" INDICATES FEW OR NO CLOUDS BELOW 12,000 FEET WITH NO
SIGNIFICANT WEATHER AND/OR OBSTRUCTIONS TO VISIBILITY.


NDZ001>003-009>011-017-281500-
NORTHWEST NORTH DAKOTA

CITY           SKY/WX    TMP DP  RH WIND       PRES   REMARKS
WILLISTON      FAIR      39  27  62 CALM      30.02R
MINOT          FAIR      39  29  67 CALM      30.00R
MINOT AFB      SUNNY     38  28  65 NW5       30.00R
$$

NDZ018>021-031>035-040>046-281500-
SOUTHWEST NORTH DAKOTA

CITY           SKY/WX    TMP DP  RH WIND       PRES   REMARKS
BISMARCK       FAIR      39  29  67 CALM      30.00R
DICKINSON      FAIR      35  26  69 E7        29.95R
GARRISON         N/A     38  29  70 N3        30.00R
HETTINGER ARPT SUNNY     36  27  69 E12       29.96R
$$

NDZ004>008-012>016-024-026-027-054-281500-
NORTHEAST NORTH DAKOTA

CITY           SKY/WX    TMP DP  RH WIND       PRES   REMARKS
GRAND FORKS    SUNNY     39  30  70 NW9       29.95R
GRND FRKS AFB  SUNNY     38  27  65 N13       29.95R
DEVILS LAKE    FAIR      37  21  52 N12       29.97R
$$

NDZ022-023-025-028>030-036>039-047>053-281500-
SOUTHEAST NORTH DAKOTA

CITY           SKY/WX    TMP DP  RH WIND       PRES   REMARKS
FARGO          SUNNY     36  30  79 N9        29.95R
JAMESTOWN      FAIR      37  27  67 NW9       29.96R
$$





USA.gov is the U.S. government's official web portal to all federal, state and local government web resources and services.